This is the latest recevied weather packets stored in our database for station/object KB9PVH-8. If no packets are shown the sender has not sent any weather packets the latest 10 day(s).
| Time | Temp. | Humidity | Pressure | Rain* | Wind** | Luminosity | Snow |
|---|---|---|---|---|---|---|---|
| 1788551175 | 27.78° C | - | - | 0 mm | 22.8 m/s, ° | - | - |
| 1788550333 | 26.67° C | - | - | 0 mm | 28.16 m/s, ° | - | - |
| 1788549495 | 26.11° C | - | - | 0 mm | 18.33 m/s, ° | - | - |
| 1788548655 | 25.56° C | - | - | 0 mm | 16.09 m/s, ° | - | - |
| 1788547854 | 25° C | - | - | 0 mm | 14.31 m/s, ° | - | - |
| 1788547813 | 25° C | - | - | 0 mm | 14.31 m/s, ° | - | - |
| 1788547030 | 25° C | - | - | 0 mm | 12.52 m/s, ° | - | - |
| 1788546973 | 25° C | - | - | 0 mm | 12.52 m/s, ° | - | - |
| 1788546163 | 24.44° C | - | - | 0 mm | 7.6 m/s, ° | - | - |
| 1788545293 | 25° C | - | - | 0 mm | 8.49 m/s, ° | - | - |
| 1788544453 | 25° C | - | - | 0 mm | 19.67 m/s, ° | - | - |
| 1788542775 | 23.89° C | - | - | 0 mm | 14.31 m/s, ° | - | - |
| 1788541943 | 23.89° C | - | - | 0 mm | 13.86 m/s, ° | - | - |
| 1788541093 | 23.33° C | - | - | 0 mm | 16.09 m/s, ° | - | - |
| 1788540253 | 22.22° C | - | - | 0 mm | 8.49 m/s, ° | - | - |
| 1788539385 | 22.22° C | - | - | 0 mm | 16.54 m/s, ° | - | - |
| 1788538543 | 21.11° C | - | - | 0 mm | 22.35 m/s, ° | - | - |
| 1788537703 | 20.56° C | - | - | 0 mm | 11.18 m/s, ° | - | - |
| 1788536863 | 20° C | - | - | 0.51 mm | 4.47 m/s, ° | - | - |
| 1788536023 | 20° C | - | - | 0 mm | 1.79 m/s, ° | - | - |
| 1788535183 | 20° C | - | - | 0.51 mm | 0.45 m/s, ° | - | - |
| 1788534343 | 20° C | - | - | 0 mm | 0.45 m/s, ° | - | - |
| 1788533503 | 20° C | - | - | 0.51 mm | 0.45 m/s, ° | - | - |
| 1788532663 | 20° C | - | - | 0 mm | 0.45 m/s, ° | - | - |
| 1788531825 | 20° C | - | - | 0.51 mm | 0.89 m/s, ° | - | - |
* Rain latest hour (hover to see other rain measurements)
** Current wind speed in m/s (hover to see current wind gust speed)